Location: Unspecified
(0.0000°N, 0.0000°E)
Time: 10:41:56
(UTC+00:00)

COSMOS-2414 - Pass Details

Date: 28 April 2024
Orbit: 908 x 965 km, 83.0° (Epoch: 29 May)

Event Time Altitude Azimuth Distance (km) Brightness Sun altitude
Exits shadow 02:46:04 16° 72° (ENE) 2,209 8.3 -45.9°
Drops below altitude 10° 02:48:05 10° 53° (NE) 2,587 8.7 -45.5°
Sets 02:51:21 0° 34° (NE) 3,522 9.5 -44.7°
